When you browse on this site, cookies collect data to enhance your experience and personalize the content and advertising you see.
Visit our Privacy Policy to learn more. By continuing to use the site, you agree to this use of cookies and data.
  • In Italy
  • List of Countries
  • For 7 days
  • Water Temperature
  • Satellite Maps
  • Weather Map
  • Weather Widgets
  • user-avatar
    Login

    Hourly Weather Córdoba

    Today, 16 December, Sunday

    Time Temperature Precipitation Wind Pressure Humidity
    00:00 +21°C° 0 mm 1 mps 724 mmHg 51%
    01:00 +21°C° 0 mm 1 mps 724 mmHg 52%
    02:00 +21°C° 0 mm 1 mps 724 mmHg 53%
    03:00 +21°C° 0 mm 1 mps 723 mmHg 56%
    04:00 +20°C° 0 mm 1 mps 723 mmHg 58%
    05:00 +20°C° 0 mm 1 mps 723 mmHg 61%
    06:00 +22°C° 0 mm 1 mps 723 mmHg 61%
    07:00 +24°C° 0 mm 2 mps 723 mmHg 61%
    08:00 +25°C° 0 mm 2 mps 723 mmHg 62%
    09:00 +27°C° 0 mm 3 mps 723 mmHg 60%
    10:00 +29°C° 0 mm 3 mps 723 mmHg 58%
    11:00 +32°C° 0 mm 4 mps 723 mmHg 57%
    12:00 +33°C° 0 mm 4 mps 722 mmHg 55%
    13:00 +34°C° 0 mm 4 mps 722 mmHg 54%
    14:00 +34°C° 0 mm 5 mps 721 mmHg 52%
    15:00 +34°C° 0 mm 5 mps 721 mmHg 53%
    16:00 +34°C° 0 mm 5 mps 720 mmHg 54%
    17:00 +34°C° 0 mm 5 mps 719 mmHg 56%
    18:00 +32°C° 0 mm 4 mps 720 mmHg 62%
    19:00 +30°C° 0 mm 4 mps 720 mmHg 69%
    20:00 +28°C° 0 mm 3 mps 720 mmHg 76%
    21:00 +27°C° 0.1 mm 3 mps 720 mmHg 78%
    22:00 +27°C° 0.1 mm 2 mps 720 mmHg 81%
    23:00 +27°C° 0.1 mm 2 mps 720 mmHg 83%

    Tomorrow, 17 December, Monday

    Time Temperature Precipitation Wind Pressure Humidity
    00:00 +26°C° 0.2 mm 2 mps 720 mmHg 84%
    01:00 +26°C° 0.2 mm 2 mps 719 mmHg 85%
    02:00 +26°C° 0.2 mm 2 mps 719 mmHg 86%
    03:00 +25°C° 0.2 mm 2 mps 719 mmHg 86%
    04:00 +25°C° 0.2 mm 2 mps 718 mmHg 87%
    05:00 +25°C° 0.2 mm 2 mps 718 mmHg 88%
    06:00 +27°C° 0.1 mm 2 mps 718 mmHg 81%
    07:00 +29°C° 0.1 mm 2 mps 719 mmHg 75%
    08:00 +30°C° 0.1 mm 2 mps 719 mmHg 68%
    09:00 +31°C° 1.5 mm 2 mps 719 mmHg 64%
    10:00 +34°C° 1.5 mm 3 mps 719 mmHg 59%
    11:00 +35°C° 1.5 mm 3 mps 719 mmHg 54%
    12:00 +35°C° 1.6 mm 3 mps 719 mmHg 53%
    13:00 +35°C° 1.6 mm 2 mps 719 mmHg 52%
    14:00 +35°C° 1.6 mm 2 mps 718 mmHg 50%
    15:00 +34°C° 2.2 mm 3 mps 718 mmHg 56%
    16:00 +33°C° 2.2 mm 4 mps 718 mmHg 61%
    17:00 +32°C° 2.2 mm 4 mps 717 mmHg 66%
    18:00 +29°C° 1.7 mm 5 mps 718 mmHg 73%
    19:00 +27°C° 1.7 mm 5 mps 719 mmHg 79%
    20:00 +25°C° 1.7 mm 5 mps 719 mmHg 86%
    21:00 +24°C° 0.3 mm 6 mps 720 mmHg 87%
    22:00 +23°C° 0.3 mm 6 mps 721 mmHg 88%
    23:00 +23°C° 0.3 mm 7 mps 722 mmHg 88%

    Day after tomorrow, 18 December, Tuesday

    Time Temperature Precipitation Wind Pressure Humidity
    00:00 +22°C° 0.2 mm 6 mps 722 mmHg 89%
    01:00 +22°C° 0.2 mm 6 mps 721 mmHg 89%
    02:00 +21°C° 0.2 mm 6 mps 721 mmHg 89%
    03:00 +21°C° 0.1 mm 6 mps 722 mmHg 89%
    04:00 +20°C° 0.1 mm 6 mps 722 mmHg 89%
    05:00 +20°C° 0.1 mm 6 mps 723 mmHg 88%
    06:00 +20°C° 0 mm 6 mps 723 mmHg 87%
    07:00 +20°C° 0 mm 6 mps 724 mmHg 86%
    08:00 +20°C° 0 mm 6 mps 725 mmHg 84%
    09:00 +21°C° 0 mm 5 mps 725 mmHg 77%
    10:00 +23°C° 0 mm 5 mps 725 mmHg 70%
    11:00 +25°C° 0 mm 5 mps 726 mmHg 63%
    12:00 +26°C° 0 mm 5 mps 725 mmHg 59%
    13:00 +27°C° 0 mm 5 mps 725 mmHg 56%
    14:00 +28°C° 0 mm 5 mps 725 mmHg 52%
    15:00 +28°C° 0 mm 4 mps 724 mmHg 52%
    16:00 +28°C° 0 mm 4 mps 724 mmHg 52%
    17:00 +28°C° 0 mm 4 mps 724 mmHg 52%
    18:00 +26°C° 0 mm 3 mps 724 mmHg 58%
    19:00 +24°C° 0 mm 2 mps 724 mmHg 65%
    20:00 +23°C° 0 mm 1 mps 724 mmHg 71%
    21:00 +22°C° 0 mm 1 mps 724 mmHg 75%
    22:00 +22°C° 0 mm 1 mps 724 mmHg 78%
    23:00 +21°C° 0 mm 1 mps 724 mmHg 81%

    19 December, Wednesday

    Time Temperature Precipitation Wind Pressure Humidity
    00:00 +21°C° 0 mm 1 mps 724 mmHg 84%
    01:00 +20°C° 0 mm 2 mps 723 mmHg 87%
    02:00 +19°C° 0 mm 2 mps 723 mmHg 90%
    03:00 +19°C° 0 mm 2 mps 723 mmHg 91%
    04:00 +19°C° 0 mm 2 mps 723 mmHg 92%
    05:00 +19°C° 0 mm 2 mps 722 mmHg 93%
    06:00 +21°C° 0 mm 2 mps 723 mmHg 88%
    07:00 +22°C° 0 mm 3 mps 723 mmHg 82%
    08:00 +24°C° 0 mm 3 mps 723 mmHg 77%
    09:00 +25°C° 0 mm 3 mps 723 mmHg 71%
    10:00 +27°C° 0 mm 3 mps 722 mmHg 64%
    11:00 +28°C° 0 mm 4 mps 722 mmHg 57%
    12:00 +29°C° 0.1 mm 4 mps 721 mmHg 56%
    13:00 +30°C° 0.1 mm 4 mps 721 mmHg 55%
    14:00 +30°C° 0.1 mm 5 mps 720 mmHg 54%
    15:00 +30°C° 0.7 mm 4 mps 720 mmHg 58%
    16:00 +29°C° 0.7 mm 4 mps 719 mmHg 62%
    17:00 +28°C° 0.7 mm 4 mps 719 mmHg 66%
    18:00 +27°C° 0.3 mm 4 mps 719 mmHg 72%
    19:00 +25°C° 0.3 mm 3 mps 719 mmHg 79%
    20:00 +24°C° 0.3 mm 2 mps 719 mmHg 86%
    21:00 +24°C° 0 mm 2 mps 719 mmHg 87%
    22:00 +23°C° 0 mm 2 mps 719 mmHg 89%
    23:00 +23°C° 0 mm 2 mps 719 mmHg 91%

    20 December, Thursday

    Time Temperature Precipitation Wind Pressure Humidity
    00:00 +23°C° 0.3 mm 2 mps 719 mmHg 90%
    01:00 +21°C° 0.3 mm 2 mps 720 mmHg 90%
    02:00 +22°C° 0.3 mm 1 mps 720 mmHg 89%
    03:00 +21°C° 0.4 mm 2 mps 720 mmHg 89%
    04:00 +20°C° 0.4 mm 2 mps 720 mmHg 88%
    05:00 +20°C° 0.4 mm 2 mps 719 mmHg 88%
    06:00 +23°C° 0 mm 2 mps 720 mmHg 77%
    07:00 +25°C° 0 mm 3 mps 721 mmHg 67%
    08:00 +27°C° 0 mm 3 mps 721 mmHg 56%
    09:00 +29°C° 0 mm 4 mps 722 mmHg 51%
    10:00 +30°C° 0 mm 5 mps 722 mmHg 46%
    11:00 +32°C° 0 mm 5 mps 722 mmHg 40%
    12:00 +33°C° 0 mm 6 mps 722 mmHg 41%
    13:00 +33°C° 0 mm 6 mps 721 mmHg 41%
    14:00 +33°C° 0 mm 6 mps 721 mmHg 41%
    15:00 +33°C° 0.1 mm 5 mps 721 mmHg 43%
    16:00 +32°C° 0.1 mm 5 mps 720 mmHg 44%
    17:00 +30°C° 0.1 mm 5 mps 720 mmHg 45%
    18:00 +28°C° 0 mm 4 mps 720 mmHg 50%
    19:00 +26°C° 0 mm 3 mps 721 mmHg 55%
    20:00 +24°C° 0 mm 2 mps 721 mmHg 60%
    21:00 +24°C° 0 mm 2 mps 721 mmHg 61%
    22:00 +23°C° 0 mm 1 mps 722 mmHg 61%
    23:00 +23°C° 0 mm 1 mps 722 mmHg 62%

    21 December, Friday

    Time Temperature Precipitation Wind Pressure Humidity
    00:00 +22°C° 0 mm 1 mps 722 mmHg 62%
    01:00 +22°C° 0 mm 1 mps 721 mmHg 62%
    02:00 +22°C° 0 mm 1 mps 721 mmHg 62%
    03:00 +22°C° 0 mm 1 mps 721 mmHg 61%
    04:00 +21°C° 0 mm 1 mps 722 mmHg 61%
    05:00 +19°C° 0 mm 0 mps 722 mmHg 61%
    06:00 +23°C° 0 mm 1 mps 722 mmHg 56%
    07:00 +25°C° 0 mm 1 mps 723 mmHg 50%
    08:00 +27°C° 0 mm 1 mps 723 mmHg 45%
    09:00 +29°C° 0 mm 2 mps 723 mmHg 42%
    10:00 +30°C° 0 mm 2 mps 723 mmHg 39%
    11:00 +33°C° 0 mm 3 mps 723 mmHg 36%
    12:00 +33°C° 0 mm 3 mps 722 mmHg 35%
    13:00 +34°C° 0 mm 4 mps 722 mmHg 34%
    14:00 +34°C° 0 mm 4 mps 721 mmHg 33%
    15:00 +34°C° 0 mm 4 mps 721 mmHg 35%
    16:00 +33°C° 0 mm 4 mps 720 mmHg 37%
    17:00 +33°C° 0 mm 5 mps 720 mmHg 39%
    18:00 +30°C° 0 mm 4 mps 720 mmHg 46%
    19:00 +27°C° 0 mm 3 mps 721 mmHg 52%
    20:00 +25°C° 0 mm 3 mps 721 mmHg 59%
    21:00 +25°C° 0 mm 2 mps 722 mmHg 60%
    22:00 +24°C° 0 mm 2 mps 722 mmHg 60%
    23:00 +23°C° 0 mm 2 mps 723 mmHg 61%
    Show more